Flag for India Weather past 2 weeks in Lucknow, Uttar Pradesh, India

Now
86 °F

Partly cloudy.


Feels Like: 102 °F
Forecast: 76 / 98 °F
Wind: 2 mph from North

Location: Lucknow / Amausi

Current Time: Sep 17, 2014 at 8:08:12 PM

Latest Report: Sep 17, 2014 at 7:30 PM


Visibility: 2 mi

Pressure: 29.56 "Hg

Humidity: 84%

Dew point: 81 °F

Location of LucknowLocation

Historic Weather in Lucknow — Graph

°F

Lucknow temperature yesterday

Maximum temperature yesterday: 99 °F (at 1:30 PM)
Minimum temperature yesterday: 77 °F (at 5:00 AM)
Average temperature yesterday: 87 °F

Past Weeks' High & Low Weather Summary

 TemperatureHumidityPressure
High104 °F (Sep 5, 3:00 PM)100% (Sep 4, 8:30 AM)29.74 "Hg (Sep 4, 8:30 AM)
Low75 °F (Sep 12, 10:30 AM)48% (Sep 5, 3:00 PM)29.50 "Hg (Sep 5, 3:30 PM)
Average86 °F81%29.62 "Hg
* Reported Sep 2 5:30 PM — Sep 17 6:00 PM, Lucknow, Weather by CustomWeather, © 2014

Note: Actual official high and low records may vary slightly from our data, if they occured in-between our weather recording intervals... More about our weather records

Advertising

Lucknow weather history for previous 24 hours

 ConditionsComfort  
Time TempWeatherWind HumidityBarometerVisibility
6:00 PM
Sep 17
91 °FScattered clouds.3 mph67%29.56 "Hg3 mi
5:30 PM97 °FScattered clouds.5 mph56%29.53 "Hg3 mi
5:00 PM99 °FScattered clouds.5 mph53%29.53 "Hg3 mi
4:30 PM99 °FScattered clouds.2 mph53%29.53 "Hg3 mi
4:00 PM99 °FScattered clouds.2 mph53%29.53 "Hg3 mi
3:30 PM99 °FScattered clouds.2 mph53%29.53 "Hg3 mi
3:00 PM97 °FScattered clouds.2 mph56%29.53 "Hg3 mi
2:30 PM97 °FScattered clouds.2 mph56%29.56 "Hg3 mi
2:00 PM99 °FScattered clouds.2 mph57%29.56 "Hg3 mi
1:30 PM97 °FScattered clouds.3 mph60%29.56 "Hg3 mi
1:00 PM97 °FScattered clouds.2 mph56%29.59 "Hg3 mi
12:00 PM97 °FScattered clouds.3 mph56%29.59 "Hg3 mi
11:30 AM97 °FBroken clouds.3 mph60%29.62 "Hg2 mi
10:30 AM95 °FBroken clouds.3 mph63%29.62 "Hg2 mi
10:00 AM95 °FBroken clouds.2 mph60%29.62 "Hg2 mi
9:30 AM95 °FScattered clouds.5 mph63%29.62 "Hg2 mi
8:30 AM91 °FScattered clouds.3 mph71%29.62 "Hg1 mi
8:00 AM90 °FScattered clouds.No wind75%29.62 "Hg1 mi
7:30 AM86 °FHaze.No wind84%29.62 "Hg1 mi
6:30 AM79 °FFog.No wind94%29.59 "Hg1 mi
5:30 AM79 °FHaze.No wind94%29.56 "Hg2 mi
5:00 AM79 °FHaze.No wind94%29.56 "Hg2 mi
4:00 AM79 °FHaze.No wind94%29.56 "Hg2 mi
3:00 AM81 °FHaze.No wind94%29.56 "Hg2 mi
2:00 AM81 °FHaze.No wind94%29.56 "Hg2 mi
1:00 AM81 °FHaze.No wind94%29.59 "Hg2 mi
12:00 AM81 °FPassing clouds.No wind94%29.59 "Hg2 mi
11:00 PM
Sep 16
82 °FPassing clouds.No wind94%29.59 "Hg2 mi
10:00 PM82 °FPassing clouds.No wind100%29.59 "Hg2 mi
9:00 PM82 °FPassing clouds.No wind94%29.59 "Hg2 mi
8:00 PM84 °FPassing clouds.2 mph84%29.56 "Hg2 mi
Weather by CustomWeather, © 2014

See weather overviewHow to use our weather pages